FNG200 EFHK-ZZZZ

Flight info

Callsign FNG200
Flight time N/A
Altitude 1500
Route HAGIP PORKKALA JUSSAROE HANKO
Aircraft B412/L-SDFZ/C

Departure

Time 2026-04-23 14:06
Airport Helsinki Vantaa Airport (EFHK)

Arrival

Time N/A
Airport ZZZZ
Time Latitude Longitude Altitude Speed Heading
2026-04-23 14:02 60.31320 24.98941 148 ft 0 kts 334°
2026-04-23 14:03 60.31325 24.98940 154 ft 1 kts 20°
2026-04-23 14:04 60.31316 24.98974 155 ft 4 kts 167°
2026-04-23 14:04 60.31290 24.98951 166 ft 5 kts 230°
2026-04-23 14:04 60.31269 24.98885 167 ft 7 kts 234°
2026-04-23 14:04 60.31242 24.98788 163 ft 8 kts 273°
2026-04-23 14:05 60.31272 24.98707 181 ft 13 kts 323°
2026-04-23 14:05 60.31444 24.98517 264 ft 45 kts 329°
2026-04-23 14:05 60.31825 24.98189 357 ft 71 kts 347°
2026-04-23 14:05 60.32329 24.98482 470 ft 86 kts 30°
2026-04-23 14:06 60.32650 24.99579 598 ft 99 kts 68°
2026-04-23 14:06 60.32562 25.01022 747 ft 112 kts 110°
2026-04-23 14:06 60.31965 25.02111 858 ft 126 kts 151°
2026-04-23 14:06 60.31075 25.02539 842 ft 136 kts 176°
2026-04-23 14:07 60.30118 25.02527 881 ft 137 kts 184°
2026-04-23 14:07 60.28550 25.00932 938 ft 126 kts 240°
2026-04-23 14:07 60.28091 24.99411 947 ft 128 kts 246°
2026-04-23 14:08 60.27609 24.97863 945 ft 134 kts 234°
2026-04-23 14:08 60.26905 24.96629 947 ft 135 kts 218°
2026-04-23 14:08 60.26075 24.95724 947 ft 136 kts 208°
2026-04-23 14:08 60.25207 24.94956 951 ft 137 kts 206°
2026-04-23 14:09 60.24293 24.94351 950 ft 139 kts 195°
2026-04-23 14:09 60.23330 24.94060 950 ft 140 kts 187°
2026-04-23 14:09 60.22355 24.93905 949 ft 141 kts 185°
2026-04-23 14:09 60.21419 24.93527 945 ft 137 kts 210°
2026-04-23 14:10 60.20739 24.92292 952 ft 130 kts 239°
2026-04-23 14:10 60.20293 24.90737 948 ft 127 kts 249°
2026-04-23 14:10 60.19931 24.89110 952 ft 128 kts 252°
2026-04-23 14:10 60.19578 24.87453 953 ft 130 kts 252°
2026-04-23 14:11 60.19200 24.85796 946 ft 130 kts 246°
2026-04-23 14:11 60.18584 24.84462 948 ft 133 kts 216°
2026-04-23 14:11 60.17709 24.83803 952 ft 136 kts 193°
2026-04-23 14:11 60.16761 24.83574 953 ft 138 kts 185°
2026-04-23 14:12 60.15798 24.83468 953 ft 139 kts 184°
2026-04-23 14:12 60.14835 24.83370 953 ft 139 kts 184°
2026-04-23 14:12 60.13870 24.83249 954 ft 139 kts 185°
2026-04-23 14:12 60.12908 24.83105 955 ft 139 kts 186°
2026-04-23 14:13 60.11947 24.82944 956 ft 138 kts 186°
2026-04-23 14:13 60.10991 24.82771 957 ft 138 kts 187°
2026-04-23 14:13 60.10045 24.82582 957 ft 139 kts 187°
2026-04-23 14:13 60.09087 24.82381 958 ft 138 kts 187°
2026-04-23 14:14 60.08130 24.82172 958 ft 138 kts 188°
2026-04-23 14:14 60.07176 24.81961 957 ft 138 kts 188°
2026-04-23 14:14 60.06225 24.81749 962 ft 137 kts 188°
2026-04-23 14:14 60.05275 24.81531 962 ft 137 kts 188°
2026-04-23 14:15 60.04323 24.81306 965 ft 138 kts 188°
2026-04-23 14:15 60.03363 24.81188 966 ft 139 kts 176°
2026-04-23 14:15 60.02408 24.81501 965 ft 140 kts 169°
2026-04-23 14:15 60.01470 24.82025 843 ft 141 kts 153°
2026-04-23 14:16 60.00725 24.83148 725 ft 126 kts 121°
2026-04-23 14:16 60.00468 24.84612 671 ft 101 kts 80°
2026-04-23 14:16 60.00656 24.85826 570 ft 85 kts 46°
2026-04-23 14:16 60.01085 24.86515 423 ft 81 kts 17°
2026-04-23 14:17 60.01654 24.86814 211 ft 85 kts
2026-04-23 14:17 60.02188 24.86888 182 ft 68 kts 355°
2026-04-23 14:17 60.02598 24.86858 140 ft 47 kts 350°
2026-04-23 14:17 60.02822 24.86825 105 ft 23 kts 349°
2026-04-23 14:18 60.02966 24.86798 90 ft 19 kts 349°
2026-04-23 14:18 60.03060 24.86763 66 ft 11 kts 349°
2026-04-23 14:18 60.03135 24.86750 49 ft 9 kts 349°
2026-04-23 14:18 60.03176 24.86740 19 ft 1 kts 350°
2026-04-23 14:19 60.03176 24.86738 7 ft 1 kts 352°
2026-04-23 14:19 60.03178 24.86737 1 ft 0 kts 352°
2026-04-23 14:19 60.03112 24.86746 139 ft 23 kts 357°
2026-04-23 14:20 60.02947 24.86748 537 ft 1 kts
2026-04-23 14:20 60.03102 24.86754 775 ft 50 kts 358°
2026-04-23 14:20 60.03607 24.86667 809 ft 90 kts 347°
2026-04-23 14:20 60.04227 24.86050 803 ft 111 kts 317°
2026-04-23 14:21 60.04549 24.84563 798 ft 125 kts 280°
2026-04-23 14:21 60.04440 24.82788 798 ft 134 kts 255°
2026-04-23 14:21 60.03975 24.81134 800 ft 140 kts 236°
2026-04-23 14:21 60.03311 24.79677 801 ft 143 kts 230°
2026-04-23 14:22 60.02615 24.78258 800 ft 143 kts 229°
2026-04-23 14:22 60.01928 24.76812 801 ft 143 kts 230°
2026-04-23 14:22 60.01250 24.75349 802 ft 143 kts 231°
2026-04-23 14:22 60.00549 24.73959 802 ft 145 kts 222°
2026-04-23 14:23 59.99711 24.72816 805 ft 147 kts 214°
2026-04-23 14:23 59.98829 24.71779 805 ft 147 kts 212°
2026-04-23 14:23 59.97940 24.70768 804 ft 147 kts 212°
2026-04-23 14:23 59.97055 24.69755 803 ft 146 kts 213°
2026-04-23 14:24 59.96179 24.68729 802 ft 146 kts 213°
2026-04-23 14:24 59.95312 24.67688 803 ft 145 kts 214°
2026-04-23 14:24 59.94451 24.66643 803 ft 145 kts 214°
2026-04-23 14:24 59.93643 24.65459 803 ft 143 kts 230°
2026-04-23 14:25 59.93069 24.63878 806 ft 139 kts 246°
2026-04-23 14:25 59.92714 24.62128 805 ft 137 kts 255°
2026-04-23 14:25 59.92421 24.60324 807 ft 136 kts 257°
2026-04-23 14:25 59.92135 24.58517 798 ft 137 kts 255°
2026-04-23 14:26 59.91800 24.56744 800 ft 139 kts 240°
2026-04-23 14:26 59.91043 24.55532 803 ft 144 kts 203°
2026-04-23 14:26 59.90045 24.55279 804 ft 147 kts 175°
2026-04-23 14:26 59.89054 24.55767 804 ft 147 kts 161°
2026-04-23 14:27 59.88082 24.56433 803 ft 147 kts 160°
2026-04-23 14:27 59.87120 24.57118 803 ft 147 kts 160°
2026-04-23 14:27 59.86158 24.57791 803 ft 146 kts 160°
2026-04-23 14:27 59.85256 24.58691 805 ft 146 kts 136°
2026-04-23 14:28 59.84759 24.60385 805 ft 142 kts 98°
2026-04-23 14:28 59.84855 24.62269 804 ft 136 kts 63°
2026-04-23 14:28 59.85270 24.63959 804 ft 136 kts 58°
2026-04-23 14:28 59.85698 24.65612 803 ft 136 kts 58°
2026-04-23 14:29 59.86124 24.67292 802 ft 136 kts 59°
2026-04-23 14:29 59.86542 24.68986 801 ft 137 kts 59°
2026-04-23 14:29 59.86955 24.70692 801 ft 137 kts 59°
2026-04-23 14:29 59.87362 24.72399 801 ft 137 kts 60°
2026-04-23 14:30 59.87763 24.74113 799 ft 137 kts 60°
2026-04-23 14:30 59.88161 24.75835 800 ft 137 kts 60°
2026-04-23 14:30 59.88557 24.77570 810 ft 138 kts 60°
2026-04-23 14:30 59.88941 24.79312 803 ft 137 kts 61°
2026-04-23 14:31 59.89319 24.81049 801 ft 137 kts 60°
2026-04-23 14:31 59.89709 24.82775 799 ft 135 kts 52°
2026-04-23 14:31 59.90406 24.83889 799 ft 128 kts 15°
2026-04-23 14:31 59.91264 24.83844 799 ft 125 kts 337°
2026-04-23 14:32 59.91895 24.82681 799 ft 128 kts 300°
2026-04-23 14:32 59.92069 24.81542 799 ft 132 kts 283°
2026-04-23 14:32 59.92170 24.79716 798 ft 133 kts 278°
2026-04-23 14:32 59.92233 24.77879 798 ft 133 kts 277°
2026-04-23 14:33 59.92294 24.76039 799 ft 133 kts 277°
2026-04-23 14:33 59.92365 24.74194 800 ft 133 kts 278°
2026-04-23 14:33 59.92443 24.72357 800 ft 133 kts 278°
2026-04-23 14:33 59.92531 24.70522 801 ft 133 kts 279°
2026-04-23 14:34 59.92630 24.68684 800 ft 133 kts 279°
2026-04-23 14:34 59.92729 24.66845 801 ft 133 kts 279°
2026-04-23 14:34 59.92826 24.65008 801 ft 133 kts 279°
2026-04-23 14:34 59.92923 24.63170 801 ft 133 kts 279°
2026-04-23 14:35 59.93028 24.61331 801 ft 133 kts 280°
2026-04-23 14:35 59.93133 24.59505 801 ft 132 kts 280°
2026-04-23 14:35 59.93237 24.57680 801 ft 133 kts 280°
2026-04-23 14:35 59.93339 24.55845 802 ft 133 kts 280°
2026-04-23 14:36 59.93439 24.54022 800 ft 134 kts 280°
2026-04-23 14:36 59.93539 24.52186 801 ft 133 kts 280°
2026-04-23 14:36 59.93641 24.50362 795 ft 132 kts 279°
2026-04-23 14:36 59.93752 24.48544 795 ft 132 kts 280°
2026-04-23 14:37 59.93863 24.46733 800 ft 132 kts 280°
2026-04-23 14:37 59.94050 24.44959 801 ft 129 kts 294°
2026-04-23 14:37 59.94488 24.43415 803 ft 128 kts 308°
2026-04-23 14:37 59.95061 24.42068 804 ft 127 kts 314°
2026-04-23 14:38 59.95677 24.40792 807 ft 128 kts 315°
2026-04-23 14:38 59.96293 24.39539 804 ft 125 kts 320°
2026-04-23 14:38 59.97011 24.38538 748 ft 127 kts 332°
2026-04-23 14:38 59.97818 24.37843 714 ft 124 kts 341°
2026-04-23 14:39 59.98601 24.37443 735 ft 110 kts 346°
2026-04-23 14:39 59.99304 24.37157 760 ft 95 kts 346°
2026-04-23 14:39 59.99900 24.36923 818 ft 80 kts 346°
2026-04-23 14:39 60.00407 24.36703 828 ft 71 kts 344°
2026-04-23 14:40 60.00871 24.36519 837 ft 65 kts 345°
2026-04-23 14:40 60.01290 24.36353 873 ft 58 kts 343°
2026-04-23 14:40 60.01687 24.36196 850 ft 58 kts 344°
2026-04-23 14:40 60.02081 24.36044 820 ft 56 kts 343°
2026-04-23 14:41 60.02465 24.35871 736 ft 60 kts 343°
2026-04-23 14:41 60.02878 24.35664 640 ft 60 kts 343°
2026-04-23 14:41 60.03234 24.35472 591 ft 43 kts 340°
2026-04-23 14:41 60.03402 24.35337 514 ft 9 kts 336°
2026-04-23 14:42 60.03438 24.35349 390 ft 5 kts 339°
2026-04-23 14:42 60.03480 24.35367 327 ft 7 kts 340°
2026-04-23 14:42 60.03536 24.35377 294 ft 7 kts 339°
2026-04-23 14:42 60.03571 24.35402 182 ft 7 kts 338°
2026-04-23 14:43 60.03603 24.35416 62 ft 4 kts 338°
2026-04-23 14:43 60.03619 24.35400 25 ft 2 kts 338°
2026-04-23 14:43 60.03628 24.35391 11 ft 0 kts 338°
2026-04-23 14:43 60.03629 24.35390 3 ft 0 kts 337°
2026-04-23 14:44 60.03576 24.35423 104 ft 21 kts 343°
2026-04-23 14:44 60.03489 24.35483 393 ft 2 kts 345°
2026-04-23 14:45 60.03591 24.35457 686 ft 34 kts 346°
2026-04-23 14:45 60.03964 24.35911 651 ft 96 kts 47°
2026-04-23 14:45 60.04054 24.37439 597 ft 128 kts 96°
2026-04-23 14:45 60.03567 24.39061 516 ft 146 kts 130°
2026-04-23 14:46 60.02666 24.40070 523 ft 153 kts 160°
2026-04-23 14:46 60.01636 24.40546 577 ft 150 kts 168°
2026-04-23 14:46 60.00614 24.40883 599 ft 146 kts 172°
2026-04-23 14:46 59.99620 24.41094 673 ft 142 kts 176°
2026-04-23 14:47 59.98638 24.41197 747 ft 141 kts 178°
2026-04-23 14:47 59.97667 24.41221 830 ft 140 kts 180°
2026-04-23 14:47 59.96672 24.41193 817 ft 145 kts 182°
2026-04-23 14:47 59.95657 24.41104 814 ft 146 kts 187°
2026-04-23 14:48 59.94708 24.40507 812 ft 142 kts 212°
2026-04-23 14:48 59.94001 24.39209 815 ft 137 kts 237°
2026-04-23 14:48 59.93510 24.37590 815 ft 137 kts 245°
2026-04-23 14:48 59.93077 24.35909 815 ft 136 kts 247°
2026-04-23 14:49 59.92664 24.34233 813 ft 136 kts 248°
2026-04-23 14:49 59.92238 24.32525 812 ft 136 kts 247°
2026-04-23 14:49 59.91853 24.30848 813 ft 134 kts 252°
2026-04-23 14:49 59.91524 24.29104 815 ft 134 kts 253°
2026-04-23 14:50 59.91202 24.27358 812 ft 133 kts 253°
2026-04-23 14:50 59.90871 24.25638 813 ft 133 kts 252°
2026-04-23 14:50 59.90523 24.23921 813 ft 134 kts 251°
2026-04-23 14:50 59.90161 24.22200 811 ft 135 kts 250°
2026-04-23 14:51 59.89793 24.20493 815 ft 134 kts 250°
2026-04-23 14:51 59.89422 24.18788 814 ft 134 kts 250°
2026-04-23 14:51 59.89050 24.17081 815 ft 134 kts 250°
2026-04-23 14:51 59.88679 24.15372 815 ft 134 kts 251°
2026-04-23 14:52 59.88311 24.13669 818 ft 134 kts 251°
2026-04-23 14:52 59.87945 24.11968 818 ft 134 kts 251°
2026-04-23 14:52 59.87579 24.10264 817 ft 134 kts 251°
2026-04-23 14:52 59.87221 24.08586 817 ft 133 kts 251°
2026-04-23 14:53 59.86862 24.06890 817 ft 133 kts 251°
2026-04-23 14:53 59.86502 24.05186 816 ft 133 kts 252°
2026-04-23 14:53 59.86144 24.03484 815 ft 133 kts 251°
2026-04-23 14:53 59.85785 24.01776 815 ft 134 kts 251°
2026-04-23 14:54 59.85426 24.00066 813 ft 134 kts 251°
2026-04-23 14:54 59.85067 23.98362 817 ft 134 kts 251°
2026-04-23 14:54 59.84709 23.96659 817 ft 134 kts 251°
2026-04-23 14:54 59.84349 23.94952 818 ft 134 kts 251°
2026-04-23 14:55 59.83992 23.93255 817 ft 133 kts 251°
2026-04-23 14:55 59.83634 23.91559 816 ft 133 kts 251°
2026-04-23 14:55 59.83276 23.89860 816 ft 133 kts 251°
2026-04-23 14:55 59.82917 23.88158 815 ft 133 kts 251°
2026-04-23 14:56 59.82557 23.86454 819 ft 134 kts 251°
2026-04-23 14:56 59.82194 23.84736 817 ft 134 kts 251°
2026-04-23 14:56 59.81833 23.83029 817 ft 134 kts 250°
2026-04-23 14:56 59.81476 23.81341 818 ft 134 kts 251°
2026-04-23 14:57 59.81113 23.79628 816 ft 134 kts 251°
2026-04-23 14:57 59.80751 23.77921 822 ft 134 kts 251°
2026-04-23 14:57 59.80391 23.76225 823 ft 133 kts 250°
2026-04-23 14:57 59.80030 23.74522 823 ft 134 kts 251°
2026-04-23 14:58 59.79670 23.72824 821 ft 133 kts 250°
2026-04-23 14:58 59.79311 23.71136 821 ft 132 kts 251°
2026-04-23 14:58 59.78954 23.69456 822 ft 133 kts 250°
2026-04-23 14:58 59.78594 23.67763 820 ft 133 kts 250°
2026-04-23 14:59 59.78236 23.66087 825 ft 131 kts 250°
2026-04-23 14:59 59.77880 23.64427 822 ft 130 kts 252°
2026-04-23 14:59 59.77527 23.62782 824 ft 129 kts 254°
2026-04-23 14:59 59.77182 23.61157 824 ft 127 kts 253°
2026-04-23 15:00 59.76837 23.59541 820 ft 127 kts 253°
2026-04-23 15:00 59.76518 23.57929 821 ft 122 kts 265°
2026-04-23 15:00 59.76746 23.56469 826 ft 113 kts 315°
2026-04-23 15:00 59.77496 23.56119 828 ft 121 kts
2026-04-23 15:01 59.78242 23.57021 831 ft 129 kts 28°
2026-04-23 15:01 59.78944 23.58149 828 ft 131 kts 29°
2026-04-23 15:01 59.79637 23.59292 833 ft 130 kts 30°
2026-04-23 15:01 59.80372 23.60048 792 ft 100 kts 358°
2026-04-23 15:02 59.80767 23.59930 793 ft 80 kts 337°
2026-04-23 15:02 59.81372 23.59212 552 ft 68 kts 317°
2026-04-23 15:02 59.81689 23.58689 399 ft 50 kts 315°
2026-04-23 15:02 59.81927 23.58278 220 ft 41 kts 315°
2026-04-23 15:03 59.82122 23.57983 81 ft 28 kts 315°
2026-04-23 15:03 59.82224 23.57828 34 ft 9 kts 314°
2026-04-23 15:03 59.82268 23.57758 27 ft 8 kts 314°
2026-04-23 15:03 59.82287 23.57728 11 ft 0 kts 315°
2026-04-23 15:04 59.82286 23.57729 5 ft 0 kts 315°
2026-04-23 15:04 59.82266 23.57778 68 ft 10 kts 320°
2026-04-23 15:04 59.82223 23.57860 251 ft 3 kts 324°
2026-04-23 15:05 59.82319 23.57764 410 ft 34 kts 322°
2026-04-23 15:05 59.82633 23.57383 434 ft 69 kts 326°
2026-04-23 15:05 59.83046 23.56776 549 ft 77 kts 316°
2026-04-23 15:05 59.83303 23.55806 637 ft 87 kts 286°
2026-04-23 15:06 59.83201 23.54534 712 ft 100 kts 250°
2026-04-23 15:06 59.82709 23.53505 783 ft 109 kts 219°
2026-04-23 15:06 59.82062 23.52671 826 ft 114 kts 216°
2026-04-23 15:06 59.81368 23.51813 824 ft 120 kts 218°
2026-04-23 15:07 59.80636 23.50968 817 ft 123 kts 218°
2026-04-23 15:07 59.79894 23.50140 817 ft 122 kts 216°
2026-04-23 15:07 59.79157 23.49301 822 ft 122 kts 218°
2026-04-23 15:07 59.78413 23.48456 823 ft 124 kts 218°
2026-04-23 15:08 59.77769 23.47392 826 ft 117 kts 239°
2026-04-23 15:08 59.77350 23.46060 833 ft 112 kts 252°
2026-04-23 15:08 59.77051 23.44648 833 ft 110 kts 256°
2026-04-23 15:09 59.76499 23.41828 832 ft 109 kts 257°
2026-04-23 15:09 59.76205 23.40435 832 ft 109 kts 255°
2026-04-23 15:09 59.75909 23.39040 833 ft 111 kts 257°
2026-04-23 15:09 59.75610 23.37647 832 ft 111 kts 255°
2026-04-23 15:10 59.75408 23.36694 835 ft 111 kts 255°
2026-04-23 15:10 59.75011 23.34821 834 ft 111 kts 255°
2026-04-23 15:10 59.74710 23.33418 833 ft 110 kts 255°
2026-04-23 15:10 59.74404 23.32038 833 ft 109 kts 255°
2026-04-23 15:11 59.74090 23.30667 830 ft 109 kts 254°
2026-04-23 15:11 59.73779 23.29298 831 ft 109 kts 254°
2026-04-23 15:11 59.73469 23.27915 833 ft 111 kts 254°
2026-04-23 15:11 59.73163 23.26510 832 ft 111 kts 254°
2026-04-23 15:12 59.72862 23.25098 832 ft 111 kts 255°
2026-04-23 15:12 59.72560 23.23681 832 ft 112 kts 254°
2026-04-23 15:12 59.72260 23.22252 832 ft 113 kts 255°
2026-04-23 15:12 59.71984 23.20805 830 ft 111 kts 261°
2026-04-23 15:13 59.71852 23.19331 832 ft 107 kts 271°
2026-04-23 15:13 59.71879 23.17881 832 ft 104 kts 282°
2026-04-23 15:13 59.72063 23.16508 832 ft 102 kts 293°
2026-04-23 15:13 59.72387 23.15283 832 ft 101 kts 304°
2026-04-23 15:14 59.72844 23.14230 830 ft 101 kts 315°
2026-04-23 15:14 59.73366 23.13295 838 ft 102 kts 316°
2026-04-23 15:14 59.73885 23.12332 839 ft 102 kts 315°
2026-04-23 15:14 59.74398 23.11364 839 ft 102 kts 315°
2026-04-23 15:15 59.74911 23.10392 840 ft 102 kts 315°
2026-04-23 15:15 59.75420 23.09425 840 ft 101 kts 315°
2026-04-23 15:15 59.75926 23.08462 840 ft 101 kts 315°
2026-04-23 15:15 59.76437 23.07486 805 ft 104 kts 315°
2026-04-23 15:16 59.76936 23.06429 720 ft 106 kts 309°
2026-04-23 15:16 59.77367 23.05250 646 ft 105 kts 302°
2026-04-23 15:16 59.77735 23.03985 574 ft 105 kts 300°
2026-04-23 15:16 59.78099 23.02725 507 ft 105 kts 300°
2026-04-23 15:17 59.78472 23.01464 442 ft 106 kts 300°
2026-04-23 15:17 59.78849 23.00207 411 ft 105 kts 300°
2026-04-23 15:17 59.79204 22.98981 429 ft 101 kts 300°
2026-04-23 15:17 59.79526 22.97768 436 ft 98 kts 298°
2026-04-23 15:18 59.79839 22.96585 485 ft 94 kts 298°
2026-04-23 15:18 59.80126 22.95474 525 ft 87 kts 297°
2026-04-23 15:18 59.80375 22.94462 590 ft 79 kts 297°
2026-04-23 15:18 59.80610 22.93516 631 ft 74 kts 298°
2026-04-23 15:19 59.80834 22.92659 639 ft 66 kts 298°
2026-04-23 15:19 59.81011 22.91993 680 ft 39 kts 294°
2026-04-23 15:19 59.81083 22.91726 562 ft 7 kts 289°
2026-04-23 15:19 59.81127 22.91610 284 ft 17 kts 288°
2026-04-23 15:20 59.81151 22.91541 197 ft 2 kts 288°
2026-04-23 15:20 59.81151 22.91532 52 ft 3 kts 288°
2026-04-23 15:20 59.81149 22.91530 34 ft 0 kts 290°
2026-04-23 15:20 59.81149 22.91531 15 ft 0 kts 289°
2026-04-23 15:21 59.81150 22.91530 7 ft 0 kts 287°